This is the latest recevied weather packets stored in our database for station/object EFTP. If no packets are shown the sender has not sent any weather packets the latest 10 day(s).
| Time | Temp. | Humidity | Pressure | Rain* | Wind** | Luminosity | Snow |
|---|---|---|---|---|---|---|---|
| 1777336003 | 0.56° C | 60% | 1019.3 hPa | - | - | - | - |
| 1777334803 | 0.56° C | 59% | 1019.2 hPa | - | - | - | - |
| 1777333603 | 0.56° C | 57% | 1019.1 hPa | - | - | - | - |
| 1777332403 | 1.11° C | 55% | 1019 hPa | - | - | - | - |
| 1777331202 | 1.11° C | 52% | 1018.9 hPa | - | - | - | - |
| 1777330002 | 1.67° C | 50% | 1018.9 hPa | - | - | - | - |
| 1777328803 | 1.67° C | 48% | 1018.8 hPa | - | - | - | - |
| 1777327602 | 2.22° C | 47% | 1018.7 hPa | - | - | - | - |
| 1777326402 | 1.67° C | 47% | 1018.7 hPa | - | - | - | - |
| 1777325202 | 1.67° C | 49% | 1018.7 hPa | - | - | - | - |
| 1777324003 | 1.67° C | 49% | 1018.6 hPa | - | - | - | - |
| 1777322803 | 2.22° C | 50% | 1018.6 hPa | - | - | - | - |
| 1777321603 | 1.67° C | 53% | 1018.5 hPa | - | - | - | - |
| 1777320402 | 2.78° C | 49% | 1018.4 hPa | - | - | - | - |
| 1777319201 | 2.78° C | 46% | 1018.3 hPa | - | - | - | - |
| 1777318002 | 3.33° C | 46% | 1018.2 hPa | - | - | - | - |
| 1777316801 | 3.33° C | 46% | 1018.1 hPa | - | - | - | - |
| 1777315602 | 3.89° C | 45% | 1017.8 hPa | - | - | - | - |
| 1777314401 | 3.89° C | 46% | 1017.9 hPa | - | - | - | - |
| 1777313201 | 4.44° C | 43% | 1017.7 hPa | - | - | - | - |
| 1777312001 | 4.44° C | 40% | 1017.4 hPa | - | - | - | - |
| 1777310801 | 5° C | 40% | 1017.2 hPa | - | - | - | - |
| 1777309601 | 5.56° C | 38% | 1016.9 hPa | - | - | - | - |
| 1777308401 | 5.56° C | 36% | 1016.8 hPa | - | - | - | - |
| 1777307201 | 5.56° C | 35% | 1016.6 hPa | - | - | - | - |
* Rain since midnight (hover to see other rain measurements)
** Current wind speed in m/s (hover to see current wind gust speed)